Location:  
MeteoStar


Sort by weather type Sort by elevation Sort by visibility Sort from west to east north Sort from north to south Alphabetically Sort from strongest wind speed Sort from lowest to highest pressure Sort from highest to lowest dew point temperature Sort coolest temperatures to warmest Sort warm temperatures to coolest
 Metric

Current Observations for United Kingdom sorted from coolest to warmest

Altnaharra02:00ZNot Avail.20 17251008.0W 1 20265
Cairngorm02:00ZNot Avail.23 2313SW 10 134084
Aviemore02:00ZNot Avail.24 23131008.5W 2 24721
Inverness / Dalcross01:50ZNot Avail.25 2371007.1CALM2529
Tain Range02:00ZNot Avail.25 24201007.7W 2 2513
Lossiemouth01:50ZNot Avail.28 27131007.2SE 3 2842
Great Dun Fell02:00ZNot Avail.28 2730SSW 17 162778
Cairnwell02:00ZNot Avail.29 N/A13S 6 3061
Glen Ogle02:00ZNot Avail.29 291.87E 9 211850
Kinloss01:50ZMostly Cloudy30 28161007.1ESE 6 2422
Leuchars01:50ZMist32 3041008.1NNW 4 2839
Aboyne02:00ZFog32 321.871008.4E 2 32459
Fylingdales02:00ZNot Avail.32 3212SSE 12 23859
Strathallan02:00ZClear33 331.871008.4ENE 1 33114
Spadeadam02:00ZNot Avail.33 3181008.2ESE 5 28935
Redesdale02:00ZNot Avail.33 3141008.7SE 6 27692
Bingley02:00ZNot Avail.33 33201009SE 8 26859
Lake Vyrnwy02:00ZNot Avail.33 N/A11007.2ESE 6 1181
Luton Airport 01:50ZClear34 302.251010.5SSE 9 27524
Leeds And Bradford01:50ZLight Snow34 32201008.7SSE 10 26682
Spadeadam01:50ZCloudy34 32151007.0ESE 5 291066
Stornoway01:50ZClear34 32251006.1NNW 1 3429
Stansted Airport01:50ZClear34 30131012.4SSE 11 26347
Cranwell01:50ZCloudy34 30131010.3SSE 15 24219
Charterhall02:00ZNot Avail.34 3171008.2WNW 4 30367
Eskdalemuir02:00ZMist34 3261008.2N 2 34793
Shap02:00ZNot Avail.34 32101008.5S 4 30816
Loftus Samos02:00ZClear34 32121009.5S 20 Gusting to 27 23190
Lakenheath Royal Air Force Base01:56ZClear35 3161012.2SE 8 2832
Holbeach02:00ZNot Avail.35 32111011.9S 10 279
Tulloch Bridge02:00ZNot Avail.35 30301008.2SSE 7 29777
Drumalbin02:00ZNot Avail.35 33131007.0ESE 5 31803
Warcop Range02:00ZNot Avail.35 32301008.2SSE 6 30744
Nottingham Weather Centre02:00ZRain35 332.251010.2SSE 7 29383
Weybourne02:00ZNot Avail.35 3291013.0SSE 10 2768
Bedford02:00ZNot Avail.35 30301011.0SSE 13 26278
High Wicombe Hqstc02:00ZLight Showers35 31121010.7SE 9 28669
Kenley02:00ZNot Avail.35 29251011.7SSE 9 28557
Birmingham / Airport01:50ZLight Rain36 3441009.3SSE 9 29324
London / Gatwick Airport01:50ZClear36 3061011.3ESE 6 31203
Newcastle 01:50ZMostly Cloudy36 32151008.3SSE 6 31265
East Midlands01:50ZLight Rain36 34151009.3SSE 11 28308
Glasgow Airport01:50ZLight Rain36 3441007.1E 5 3226
Edinburgh Airport01:50ZCloudy36 3261007.2ENE 2 36134
Scatsa / Shetland Island01:50ZClear36 3261011.2SSE 12 2872
Boulmer01:50ZCloudy36 3471008.2S 8 3075
Norwich Weather Centre01:50ZClear36 32131013.2SSE 7 3045
Manston02:00ZNot Avail.36 3281014SSE 13 27180
Mildenhall Royal Air Force Base01:56ZClear36 3681011.9SSE 9 2932
Wattisham01:50ZClear36 3271012.3SSE 8 30285
Northolt01:50ZMostly Cloudy36 30181011.2SE 7 30124
Coningsby Royal Air Force Base01:50ZNot Avail.36 32201011.1SSE 9 2922
Leeming01:50ZCloudy36 3471009.2SSE 10 29131
Wittering01:50ZMostly Cloudy36 30161010.3SSE 9 29275
Linton-On-Ouse01:50ZCloudy36 3461009.2SSE 10 2952
Waddington01:50ZCloudy36 32131010.3SSE 11 28223
Topcliffe Royal Air Force Base 01:50ZLight Rain36 3461009.2SE 12 2891
Marham01:50ZClear36 3271012.2SE 10 2975
Baltasound02:00ZLight Showers36 33121011.9S 13 2749
Aultbea02:00ZNot Avail.36 29301006.5ESE 4 3336
Saint Bees Head02:00ZNot Avail.36 33151006.7SE 17 26406
Church Lawford02:00ZRain36 3441009.9SSE 5 32351
Langdon Bay02:00ZNot Avail.36 32251014S 14 Gusting to 27 27383
Manchester Airport01:50ZLight Rain37 3241008.3SSE 6 32226
London City Airport01:50ZClear37 3061012.1ESE 6 3216
London / Heathrow Airport01:50ZNot Avail.37 30161011.2ESE 6 3278
Southend-On-Sea 01:50ZNot Avail.37 32161013.2SSE 12 2949
Blackpool Airport02:00ZNot Avail.37 3416SE 14 2832
Hawarden02:00ZNot Avail.37 35131007.5SSE 12 2932
Shawbury01:50ZCloudy37 34171007.3ESE 1 37249
Sumburgh Cape 01:50ZPartly Cloudy37 32191010.1N 2 3716
Benson01:50ZMostly Cloudy37 3681009.3SE 10 30206
Leconfield01:50ZMostly Cloudy37 3461010.1SSE 6 3219
Wainfleet02:00ZNot Avail.37 34121011.9SSE 17 279
Dundrennan02:00ZHaze37 3561006.2E 9 30374
Keswick02:00ZNot Avail.37 33171007.7E 5 33265
Carlisle02:00ZNot Avail.37 33201007.4N 3791
Bridlington Mrsc02:00ZNot Avail.37 35121010.7S 18 Gusting to 27 2749
Rhyl02:00ZNot Avail.37 35101006.4SE 5 33252
Donna Nook02:00ZNot Avail.37 33131011.4SSE 14 2826
Little Rissington02:00ZNot Avail.37 34161009.0SSE 11 29705
Walney Island02:00ZNot Avail.38 35201007.2ESE 12 3049
Inverbervie02:00ZClear38 3581008S 12 30439
Crosby02:00ZNot Avail.38 34201007SE 12 3026
Sennybridge02:00ZClear38 3851006.5SSE 11 311007
Shobdon02:00ZNot Avail.38 3771007.9E 6 33324
Shoeburyness02:00ZNot Avail.38 3381013.0S 14 306
Herstmonceux02:00ZNot Avail.38 31131012.7S 7 33170
Lyneham02:00ZNot Avail.39 37101008.7SSE 12 32475
Boscombe Down01:50ZRain39 3931008.4SE 11 32406
Liverpool Airport 01:50ZCloudy39 342.251007.2SE 11 3285
Farnborough02:00ZNot Avail.39 34171010.5SE 8 33213
Lydd Airport 01:50ZMostly Cloudy39 34161013.1S 15 319
Humberside01:50ZCloudy39 32161010.2S 17 30101
Wick01:50ZLight Rain39 36201008.2S 11 32127
Aberdeen / Dyce01:50ZCloudy39 3671008.3SSE 8 33213
Prestwick Airport01:50ZMostly Cloudy39 3661006.2ESE 6 3565
Brize Norton01:50ZMostly Cloudy39 36121009.3SSE 7 34288
Odiham01:50ZMostly Cloudy39 36101009.4SSE 12 32403
Middle Wallop01:50ZMostly Cloudy39 392.251009.3SE 9 33298
Lerwick02:00ZLight Showers39 342.251011.0SSE 8 33269
Prestwick Rnas02:00ZNot Avail.39 34301006ESE 4 3685
Pershore02:00ZLight Showers39 3681009SE 8 33104
Larkhill02:00ZNot Avail.39 382.751009.2ESE 7 34433
Liscombe02:00ZNot Avail.40 400.51006.5S 5 361141
Lough Fea02:00ZMist40 N/A0.871003.7SSE 4 738
Bristol / Lulsgate 01:50ZRain41 412.251006.5SE 13 34620
Jersey Airport01:50ZCloudy41 3961009.3SSE 14 33275
Kirkwall Airport01:50ZMostly Cloudy41 36191008.2SSE 10 3568
Benbecula01:50ZCloudy41 3761005.1ESE 5 3819
Tiree01:50ZMostly Cloudy41 37111004.1ESE 17 3339
Fairford Royal Air Force Base01:31ZCloudy41 3471009.0SE 12 34285
Sule Skerry02:00ZNot Avail.41 33201007.5SE 19 3252
South Uist Range02:00ZNot Avail.41 37161005.2ESE 10 3532
Capel Curig02:00ZLight Showers41 36101006S 12 34708
Thorney Island02:00ZLight Rain41 3881010.2SSE 15 3313
Glenanne02:00ZNot Avail.41 3971003.0SSW 5 38528
Bournemouth Airport02:00ZRain42 401.121008.9SSE 12 3536
Shoreham Airport02:00ZNot Avail.42 3461011.5SSE 14 356
West Freugh02:00ZNot Avail.42 4081005.4ESE 16 3436
Machrihanish02:00ZNot Avail.42 4141004.5SE 13 3542
Aberporth02:00ZLight Rain42 4261004.5SSE 13 35436
Fair Isle02:00ZClear42 31201010.4SSE 13 35187
Trawscoed02:00ZLight Showers42 39251005.7SE 6 38206
Dunkeswell Aerodrome02:00ZNot Avail.42 41121007S 6 38826
Castlederg02:00ZNot Avail.42 41301002.7SE 5 39167
Belfast / Aldergrove Airport01:50ZMostly Cloudy43 4141003.3ESE 4 41265
Belfast / Harbour01:50ZLight Rain43 4341003.1ESE 3 4316
Chivenor02:00ZLight Rain43 41101006.2ENE 7 3926
St Athan Royal Air Force Base01:50ZLight Drizzle43 4351006.2ESE 6 39164
Yeovilton01:50ZRain43 4351007.2SE 10 3775
Cardiff-Wales Airport01:50ZCloudy43 4341006.2SE 11 37219
Guernsey Airport01:50ZShowers nearby43 4391008.3S 14 36334
Valley01:50ZMostly Cloudy43 39301004.1SSE 14 363
Exeter Airport01:50ZPartly Cloudy43 4361006.2SE 3 4398
Aberdaron02:00ZNot Avail.43 4241005.4SSE 19 Gusting to 25 35311
Camborne02:00ZCloudy43 42151006.2S 5 40285
Saint Catherines Point02:00ZNot Avail.43 4261009.5SSE 12 3752
Portglenone02:00ZNot Avail.43 4171003E 8 38209
Ballypatrick Forest02:00ZNot Avail.43 4191004SSE 6 39511
Culdrose01:50ZClear45 45151006.2SW 10 40255
Isle Of Man / Ronaldsway Airport01:50ZMostly Cloudy45 41151004.1SE 14 3955
Milford Haven02:00ZNot Avail.45 4471004.5S 7 41144
Plymouth02:00ZLight Drizzle46 4571006.5WSW 8 42164
Mumbles02:00ZNot Avail.46 4471006.5SSE 12 40114
Isle Of Portland02:00ZClear46 4461007.7S 19 Gusting to 26 39173
Scilly; Saint MaryS02:00ZNot Avail.48 44301006.4W 14 42101
Saint Helena Island01:50ZNot Avail.68 6671015.7E 8 681427